Location: Atherton
(17.2661°S, 145.4859°E)
Time: 11:00:36
(UTC+10:00)

ARIANE 6 FM1 Upper Stage - Pass Details

Date: 27 May 2025
Orbit: 530 x 610 km, 62.0° (Epoch: 19 June)

Event Time Altitude Azimuth Distance (km) Brightness Sun altitude
Rises 05:27:37 0° 331° (NNW) 2,822 6.1 -16.9°
Reaches altitude 10° 05:29:50 10° 329° (NNW) 1,936 5.3 -16.4°
Maximum altitude 05:34:14 75° 244° (WSW) 633 2.7 -15.4°
Drops below altitude 10° 05:38:43 10° 158° (SSE) 1,976 5.5 -14.4°
Sets 05:41:01 0° 156° (SSE) 2,887 6.4 -13.9°
